Location: *
(60.1759°S, 155.0663°W)
Time: 20:49:41
(UTC+00:00)

SL-16 R/B - Pass Details

Date: 17 September 2019
Orbit: 842 x 846 km, 71.0° (Epoch: 20 October)

Event Time Altitude Azimuth Distance (km) Brightness Sun altitude
Rises 14:59:01 0° 221° (SW) 3,445 5.1 -11.2°
Reaches altitude 10° 15:01:29 10° 221° (SW) 2,505 4.4 -10.9°
Maximum altitude 15:07:15 80° 306° (NW) 878 2.2 -10.2°
Drops below altitude 10° 15:12:58 10° 32° (NNE) 2,482 4.9 -9.5°
Sets 15:15:24 0° 32° (NNE) 3,411 5.6 -9.3°
